Regional Weather Roundup
Issued by NWS

Home | Current Version | Previous Version | Text Only | Print | Product List | Glossary On
Versions: 1 2 3 4 5 6 7 8 9 10 11 12 13 14 15 16 17 18 19 20 21 22 23 24 25 26 27 28
000
ASUS46 KPQR 260510
RWROR

OREGON REGIONAL WEATHER ROUNDUP
NATIONAL WEATHER SERVICE PORTLAND OR
1000 PM PDT MON JUL 25 2016

NOTE: "FAIR" INDICATES FEW OR NO CLOUDS BELOW 12,000 FEET WITH
NO SIGNIFICANT WEATHER AND/OR OBSTRUCTIONS TO VISIBILITY.

ORZ001>013-260600-
NORTHWEST OREGON


CITY           SKY/WX    TMP DP  RH WIND       PRES   REMARKS
ASTORIA        CLOUDY    62  58  86 NW13      30.15R
NEWPORT        CLOUDY    59  55  88 N7        30.18
PORTLAND       PTCLDY    72  58  61 NW8       30.06R
VANCOUVER WA   CLEAR     71  57  61 VRB7      30.06R
SCAPPOOSE      CLEAR     68  56  65 N10       30.06R
HILLSBORO      CLEAR     69  55  60 NW8       30.06R
AURORA         CLEAR     74  53  48 NW5       30.06R
MCMINNVILLE    CLEAR     65  57  75 SW12      30.07R
SALEM          CLEAR     70  56  61 NW8       30.06R
CORVALLIS        N/A     64  55  72 W21G26    30.08R
EUGENE         PTCLDY    70  58  65 W6        30.08R
$$

ORZ021-028-260600-
SOUTHWEST OREGON


CITY           SKY/WX    TMP DP  RH WIND       PRES   REMARKS
NORTH BEND     CLOUDY    61  57  88 N7        30.17R
BROOKINGS      CLEAR     56  54  93 CALM      30.04R
ROSEBURG       CLEAR     74  55  51 NW9       30.07R
SEXTON SUMMIT  CLEAR     62  55  77 N13       30.16R
MEDFORD        CLEAR     78  53  41 NE5       30.03R
$$

ORZ014>016-041-260600-
COLUMBIA GORGE


CITY           SKY/WX    TMP DP  RH WIND       PRES   REMARKS
TROUTDALE      CLEAR     74  58  57 NW8       30.05R
THE DALLES     CLEAR     82  58  43 NW17G25   29.92R
$$

ORZ029>031-041-044-049-050-061>064-502-503-505>511-260600-
EASTERN OREGON


CITY           SKY/WX    TMP DP  RH WIND       PRES   REMARKS
REDMOND        CLEAR     74  53  48 NW10      30.09R
BEND           CLEAR     72  55  56 VRB5      30.11R
PRINEVILLE     CLEAR     73  54  49 W10       30.10R
KLAMATH FALLS  CLEAR     73  52  47 NW6       30.13R
LAKEVIEW       CLEAR    N/A N/A N/A NE8       30.15R
HERMISTON      CLEAR     79  51  37 SW6       29.87R
PENDLETON      CLEAR     77  41  27 W7        29.92R
JOHN DAY       CLEAR     80  42  26 NW6       30.07R
MEACHAM        CLEAR     63  47  55 CALM      30.10R
LA GRANDE      CLEAR     77  43  29 NW9       30.00R
BAKER CITY     CLEAR     69  44  40 CALM      30.04R
BURNS          CLEAR     78  33  19 NW12      30.06R
ROME             N/A     84  28  13 N9        30.00R
ONTARIO        CLEAR     74  53  48 CALM      29.89R
$$




USA.gov is the U.S. government's official web portal to all federal, state and local government web resources and services.